Flag for Netherlands Weather past 2 weeks in Almere, Netherlands

Now
64 °F

Scattered showers. Passing clouds.


Feels Like: 64 °F
Forecast: 54 / 72 °F
Wind: 10 mph from Southwest

Location: Amsterdam Schiphol Airport

Current Time: Aug 28, 2015 at 11:56:27 AM

Latest Report: Aug 28, 2015 at 10:55 AM


Visibility: N/A

Pressure: 30.01 "Hg

Humidity: 78%

Dew point: 57 °F

Location of AlmereLocation

Historic Weather in Almere — Graph

°F

Almere temperature yesterday

Maximum temperature yesterday: 64 °F (at 12:25 AM)
Minimum temperature yesterday: 57 °F (at 11:55 PM)
Average temperature yesterday: 61 °F

Past Weeks' High & Low Weather Summary

 TemperatureHumidityPressure
High81 °F (Aug 13, 4:55 PM)100% (Aug 14, 12:25 AM)30.21 "Hg (Aug 14, 12:25 AM)
Low55 °F (Aug 16, 10:55 PM)42% (Aug 22, 2:55 PM)29.45 "Hg (Aug 24, 4:25 PM)
Average65 °F81%29.89 "Hg
* Reported Aug 13 10:25 AM — Aug 28 10:55 AM, Almere, Weather by CustomWeather, © 2015

Note: Actual official high and low records may vary slightly from our data, if they occured in-between our weather recording intervals... More about our weather records

Advertising

Almere weather history for previous 24 hours

 ConditionsComfort  
Time TempWeatherWind HumidityBarometerVisibility
10:55 AM
Fri, Aug 28
64 °FScattered showers. Passing clouds.10 mph78%30.01 "HgN/A
10:25 AM64 °FPassing clouds.10 mph83%29.98 "HgN/A
9:55 AM61 °FPassing clouds.10 mph94%29.98 "HgN/A
9:25 AM59 °FPassing clouds.12 mph94%29.98 "HgN/A
8:55 AM59 °FPassing clouds.12 mph94%29.95 "HgN/A
8:25 AM59 °FPassing clouds.10 mph94%29.95 "Hg5 mi
7:55 AM57 °FPassing clouds.9 mph100%29.95 "Hg6 mi
7:25 AM57 °FPassing clouds.10 mph94%29.92 "Hg5 mi
6:55 AM55 °FPassing clouds.9 mph94%29.92 "Hg4 mi
6:25 AM55 °FPassing clouds.9 mph100%29.92 "Hg4 mi
5:55 AM55 °FPassing clouds.9 mph100%29.92 "Hg4 mi
4:55 AM55 °FPassing clouds.8 mph94%29.89 "Hg5 mi
4:25 AM55 °FPassing clouds.7 mph94%29.89 "Hg6 mi
3:55 AM55 °FPassing clouds.9 mph100%29.89 "HgN/A
3:25 AM55 °FPassing clouds.8 mph94%29.86 "HgN/A
2:55 AM55 °FPassing clouds.7 mph100%29.86 "HgN/A
2:25 AM57 °FPassing clouds.10 mph94%29.86 "HgN/A
1:55 AM57 °FPassing clouds.13 mph94%29.86 "HgN/A
1:25 AM57 °FScattered showers. Passing clouds.10 mph94%29.86 "HgN/A
12:55 AM57 °FScattered showers. Passing clouds.10 mph94%29.86 "HgN/A
12:25 AM57 °FScattered showers. Passing clouds.9 mph94%29.86 "HgN/A
11:55 PM
Thu, Aug 27
57 °FPassing clouds.10 mph94%29.83 "HgN/A
11:25 PM59 °FPassing clouds.12 mph88%29.83 "HgN/A
10:55 PM59 °FPassing clouds.13 mph88%29.83 "HgN/A
10:25 PM59 °FPassing clouds.13 mph88%29.83 "HgN/A
9:55 PM59 °FPassing clouds.13 mph94%29.83 "HgN/A
9:25 PM59 °FPassing clouds.12 mph94%29.80 "HgN/A
8:55 PM59 °FPassing clouds.12 mph94%29.80 "HgN/A
8:25 PM61 °FPassing clouds.13 mph88%29.80 "HgN/A
7:55 PM61 °FPassing clouds.14 mph88%29.80 "HgN/A
7:25 PM61 °FPassing clouds.15 mph88%29.80 "HgN/A
6:55 PM61 °FPassing clouds.14 mph88%29.80 "HgN/A
6:25 PM61 °FPassing clouds.15 mph88%29.80 "HgN/A
5:55 PM61 °FPassing clouds.17 mph88%29.80 "HgN/A
5:25 PM61 °FPassing clouds.15 mph88%29.77 "HgN/A
4:55 PM59 °FLight rain. Passing clouds.16 mph88%29.80 "HgN/A
4:25 PM59 °FLight rain. Passing clouds.16 mph88%29.77 "HgN/A
3:55 PM61 °FRain showers. Scattered clouds.14 mph88%29.80 "Hg3 mi
3:25 PM61 °FSprinkles. Scattered clouds.17 mph94%29.77 "Hg5 mi
2:55 PM61 °FRain showers. Scattered clouds.14 mph94%29.77 "Hg4 mi
2:25 PM61 °FSprinkles. Partly sunny.17 mph94%29.77 "Hg6 mi
1:55 PM61 °FSprinkles. Scattered clouds.17 mph94%29.77 "HgN/A
1:25 PM63 °FSprinkles. Scattered clouds.17 mph88%29.77 "HgN/A
12:55 PM63 °FRain. Partly sunny.16 mph88%29.77 "HgN/A
12:25 PM63 °FScattered showers. Partly sunny.17 mph83%29.77 "HgN/A
11:55 AM63 °FScattered showers. Scattered clouds.15 mph88%29.77 "HgN/A
11:25 AM63 °FPartly sunny.13 mph88%29.77 "HgN/A
Weather by CustomWeather, © 2015

See weather overviewHow to use our weather pages